Location: Buttermere
(51.3333°N, 1.5167°W)
Time: 02:44:01
(UTC+00:00)

CZ-2C R/B - Pass Details

Date: 18 September 2020
Orbit: 785 x 870 km, 98.2° (Epoch: 18 October)

Event Time Altitude Azimuth Distance (km) Brightness Sun altitude
Rises 19:15:54 0° 19° (NNE) 3,408 5.8 -10.6°
Reaches altitude 10° 19:18:25 10° 27° (NNE) 2,481 5.0 -10.9°
Maximum altitude 19:23:36 40° 96° (E) 1,245 3.1 -11.7°
Drops below altitude 10° 19:28:49 10° 166° (SSE) 2,502 4.8 -12.5°
Sets 19:31:21 0° 173° (S) 3,440 5.6 -12.9°
